Погода Нерчинский Завод

Погода Нерчинский Завод : погода сейчас, прогноз погоды и архив. Всё, что Вы хотите узнать о погоде Нерчинский Завод!

Хотите узнать прогноз погоды Нерчинский Завод? Тогда Вам сюда: Погода Нерчинский Завод

Поиск расширенной информации на нашем сайте:

Другие новости

Новости СМИ2

Главная страница сайта

Новости сайта

03.07.2017

Напоминаем, что на нашем специализированном сайте Метеоцентр.Азия вы можете получить высокодетализированные автоматические прогнозы погоды по пунктам России, СНГ и мира в авиационном формате (включающие направление и скорость ветра, видимость, явления погоды, количество и форму облачности, нижнюю и верхнюю границу облачности).


Погода Нерчинский Завод - сегодня

Время (UTC), дата Ветер
(°,м/с) 
Видим.   Явления Облачность Т
(°С)
Тd
(°С)
f(%) Тe
(°С)
Pmin
(гПа)
dP
(гПа)
Po
(мм)
O2
(г/м3)
Тmin Tmax R s Состояние
почвы
00 20.07.18 330 (СЗ) 20000 м    10/10 1000 м 
[Sc]
+19.5 +15.5 78 +32  1004  0.4  701  260  +14.5        влажная 
03 20.07.18 070 (В) 20000 м    9/3 1000 м средняя, верхняя 
[Cu med, cong|Ac trans|Cc]
+23.8 +16 62 +36  1002.8  -0.2  701  256           
06 20.07.18 050 (СВ) 20000 м    9/6 600 м средняя, верхняя 
[Cu med, cong|Ac trans|Cc]
+24.6 +16.3 60 +38  1002.5  -0.2  701  255           
09 20.07.18 070 (В) 20000 м    3/1 1000 м верхняя 
[Cu med, cong|Ci fib]
+25.4 +16.6 58 +39  1001.3  -0.8  700  254           
15 20.07.18 230 (ЮЗ) н/о    4/0 верхняя 
[Ci fib]
+17 +16 94 +30  1002.9  -0.6  700  262           
18 20.07.18 тихо ()   н/о    10/3 600 м верхняя 
[Sc diur, vesp|Ci fib]
+16.4 +15.6 95 +28  1001.8  -1.2  699  262           
21 20.07.18 тихо ()   н/о    10/10 600 м 
[Sc]
+17.9 +16.8 93 +32  999.9  -1.3  698  260           
00 21.07.18 090 (В) 20000 м    10/10 600 м кучево-дожд. 
[Cb cap]
+20.6 +17.5 82 +36  997.8  -1.4  697  257  +15.9        влажная 
03 21.07.18 100 (В) 10 км  слаб. ливневой дождь  10/10 600 м кучево-дожд. 
[Cb cap]
+19.2 +18.6 96 +38  996.1  -1.8  696  257           
09 21.07.18 150 (ЮВ) 4{11}  20000 м    8/6 600 м кучево-дожд., верхняя 
[Cb cap|Cc]
+26.3 +21.8 76 +53  992  -0.7  694  249           
12 21.07.18 210 (ЮЗ) 20000 м  {ливн. осадки}  1/1 600 м кучево-дожд. 
[Cb calv]
+23.5 +19.4 78 +44  993.8  695  253    +27.4  24     
15 21.07.18 260 (З) н/о    6/0 средняя 
[Ac cast]
+20.3 +18.2 88 +38  996.2  1.5  696  257           
18 21.07.18 170 (Ю) н/о    ясно 
+17.2 +16.4 95 +33  994.8  -2  694  259           
21 21.07.18 230 (ЮЗ) 20000 м    1/1 600 м 
[Sc]
+20.5 +17.7 84 +37  994.1  0.2  695  256           
00 22.07.18 210 (ЮЗ) 2{10}  20000 м    6/6 600 м кучево-дожд. 
[Cb cap]
+20.2 +14.6 70 +30  996.8  2.3  696  258  +16.7        влажная 
03 22.07.18 250 (З) 20000 м    9/9 600 м кучево-дожд. 
[Cb cap]
+21.5 +15 66 +32  998.1  1.6  697  257           
06 22.07.18 260 (З) 20000 м    8/6 600 м кучево-дожд., средняя 
[Cb cap|Ac trans]
+23.3 +15.4 61 +35  998.9  1.1  698  256           
09 22.07.18 240 (ЮЗ) 20000 м    9/9 600 м кучево-дожд. 
[Cb cap]
+22.2 +15.9 67 +35  1000.4  1.1  699  257           
15 22.07.18 тихо ()   н/о    10/8 1000 м средняя 
[Sc|Ac trans]
+17 +15.4 90 +28  1003.2  0.7  700  262           
18 22.07.18 060 (СВ) н/о    10/10 600 м кучево-дожд. 
[Cb cap]
+17 +15.5 91 +30  1003.8  0.5  701  262           
21 22.07.18 230 (ЮЗ) 20000 м    10/10 600 м кучево-дожд. 
[Cb cap]
+17.1 +15.3 89 +30  1004.4  0.6  701  262           
00 23.07.18 290 (З) 20000 м    9/8 1000 м средняя 
[Sc|Ac lent]
+20.5 +15.6 73 +32  1004.8  1.1  702  260  +16.7        влажная 
03 23.07.18 270 (З) 20000 м    6/3 1000 м средняя 
[Cu med, cong|Ac trans]
+23.5 +15.3 60 +35  1004.3  0.2  702  257           
06 23.07.18 290 (З) 20000 м    3/3 1000 м 
[Cu med, cong]
+25.9 +11.9 42 +31  1003.9  702  256           
09 23.07.18 280 (З) 20000 м    4/1 1000 м верхняя 
[Sc diur, vesp|Ci fib]
+25.8 +10.9 39 +30  1004  -0.1  702  256           
Время (UTC), дата Ветер
(°,м/с) 
Видим.   Явления Облачность Т
(°С)
Тd
(°С)
f(%) Тe
(°С)
Pmin
(гПа)
dP
(гПа)
Po
(мм)
O2
(г/м3)
Тmin Tmax R s Состояние
почвы

Для получения пояснительной информации подведите курсор к названию столбца.

ПОГОДА Нерчинский Завод - архив

Всё, что Вы хотите узнать о погоде Нерчинский Завод - удобно и подробно!

Выберите нужную дату (начиная с 1 января 2015* года) и нажмите кнопку "Найти".
Будут отображены архивные сводки погоды по пункту Нерчинский Завод, начиная с указанной даты.


Отображать данные в формате CSV (для использования в таблицах Excel)


Внимание! Наш архив погоды предназначен исключительно для личного некоммерческого использования в познавательных целях. Если Вам необходимы официальные справки о состоянии погоды (для производственных, юридических, коммерческих и т.п. целей), обращайтесь в органы Росгидромета.

*Примечание: данная дата относится к архиву по метеостанциям СССР (Россия, СНГ, Балтия).
Архив по метеостанциям Зарубежной Европы и Азии (кроме Китая) хранится 10 дней, по другим регионам земного шара (Китай, Африка, Америка, Австралия, Океания) - 1 день.

Нерчинский Завод - район местоположения метеостанции


Название, широта, долгота, высота метеостанции:
Нерчинский Завод 51.3°ш. 119.6°д. 619 м над ур. моря [Российская Федерация]

Дополнительная информация

В oтличие oт бoльшинства пoгoдных сайтoв мы публикуем пoдрoбную метеoинфoрмацию в детальнoм прoфессиoнальнoм фoрмате.

Характеристики температуры и влажнoсти вoздуха измеряются на высoте 2 м в тени вдали oт зданий и деревьев.
Скoрoсть ветра измеряется на высoте 10 м (на урoвне рoста челoвека скoрoсть ветра ниже в 1.5-2 раза). Если метеoстанция нахoдится в гoрoде или в лесу, тo скoрoсть ветра занижена на 2-4 м/с пo сравнению с oткрытым местoм. Скoрoсть ветра над акватoриями крупных рек и oзёр, а также на вершинах хoлмoв на 2-5 м/с выше, чем в oбычных услoвиях.
Атмoсфернoе давление в разных тoчках местнoсти мoжет значительнo oтличаться oт давления на метеoстанции, в зависимoсти oт услoвий рельефа (при пoдъёме на 10 м давление пoнижается примернo на 1 мм рт.ст.).